This demonstration page uses our WeatherBlox Daily Observations layout. Learn more.

Hourly Observations for February 11, 2018

Temp ( °F °C ) Dew Point ( °F °C ) Humidity (%) Winds ( mph kmh ) Pressure ( in mb ) Visibility ( mi km ) Precip ( " mm )
12:15 am 00:15 Clear 6 -14.6 3 -16 89 89 W 5 7 30.36 1028 10 16.0934 0 0
12:35 am 00:35 Clear 6 -14.4 4 -15.5 91 91 W 7 11 30.36 1028 10 16.0934 0 0
12:55 am 00:55 Clear 6 -14.5 4 -15.6 91 91 W 6 9 30.33 1027 10 16.0934 0 0
1:15 am 01:15 Clear 4 -15.5 2 -16.7 91 91 WSW 6 9 30.33 1027 10 16.0934 0 0
1:35 am 01:35 Clear 6 -14.7 3 -16 90 90 W 7 11 30.33 1027 10 16.0934 0 0
1:55 am 01:55 Clear 6 -14.5 4 -15.7 91 91 WSW 7 11 30.33 1027 10 16.0934 0 0
2:15 am 02:15 Clear 7 -14.1 4 -15.5 89 89 W 8 13 30.3 1026 10 16.0934 0 0
2:35 am 02:35 Clear 5 -14.9 3 -16.1 91 91 W 8 13 30.33 1027 10 16.0934 0 0
2:55 am 02:55 Clear 6 -14.7 3 -16.2 88 88 WSW 7 11 30.33 1027 10 16.0934 0 0
3:15 am 03:15 Clear 5 -15.1 2 -16.6 88 88 SW 5 7 30.3 1026 10 16.0934 0 0
3:35 am 03:35 Clear 3 -16.3 0 -17.6 90 90 WSW 5 7 30.3 1026 10 16.0934 0 0
3:55 am 03:55 Clear 2 -16.4 0 -17.8 89 89 W 6 9 30.3 1026 10 16.0934 0 0
4:15 am 04:15 Clear 3 -16.3 0 -17.6 90 90 W 8 13 30.3 1026 10 16.0934 0 0
4:35 am 04:35 Clear 5 -15.2 2 -16.6 89 89 W 10 17 30.3 1026 10 16.0934 0 0
4:55 am 04:55 Clear 5 -15.2 2 -16.8 88 88 W 9 15 30.3 1026 10 16.0934 0 0
5:15 am 05:15 Clear 4 -15.5 1 -17.2 87 87 W 9 15 30.3 1026 10 16.0934 0 0
5:35 am 05:35 Clear 4 -15.5 1 -17.3 86 86 W 9 15 30.3 1026 10 16.0934 0 0
5:55 am 05:55 Clear 4 -15.5 1 -17.3 86 86 WNW 8 13 30.3 1026 10 16.0934 0 0
6:15 am 06:15 Clear 2 -16.5 -1 -18.3 86 86 WNW 8 13 30.33 1027 10 16.0934 0 0
6:35 am 06:35 Clear 2 -16.5 -1 -18.3 86 86 WNW 12 19 30.33 1027 10 16.0934 0 0
6:55 am 06:55 Clear 5 -15.2 1 -17.5 83 83 WNW 10 17 30.33 1027 10 16.0934 0 0
7:15 am 07:15 Clear 4 -15.5 0 -17.6 84 84 WNW 12 19 30.33 1027 10 16.0934 0 0
7:35 am 07:35 Clear 5 -15.1 1 -17.4 83 83 WNW 10 17 30.33 1027 10 16.0934 0 0
7:55 am 07:55 Sunny 4 -15.5 0 -17.9 82 82 WNW 9 15 30.36 1028 10 16.0934 0 0
8:15 am 08:15 Sunny 4 -15.4 0 -17.8 82 82 WNW 9 15 30.36 1028 10 16.0934 0 0
8:35 am 08:35 Sunny 7 -13.9 2 -16.5 81 81 NW 10 17 30.33 1027 10 16.0934 0 0
8:55 am 08:55 Sunny 8 -13.5 2 -16.6 78 78 WNW 8 13 30.33 1027 10 16.0934 0 0
9:15 am 09:15 Sunny 8 -13.5 2 -16.6 78 78 WNW 10 17 30.33 1027 10 16.0934 0 0
9:35 am 09:35 Sunny 8 -13.2 2 -16.6 76 76 WNW 7 11 30.33 1027 10 16.0934 0 0
9:55 am 09:55 Sunny 9 -12.6 3 -16.1 75 75 WNW 8 13 30.33 1027 10 16.0934 0 0
10:15 am 10:15 Sunny 11 -11.5 4 -15.3 74 74 W 9 15 30.33 1027 10 16.0934 0 0
10:35 am 10:35 Sunny 13 -10.7 5 -14.8 72 72 W 9 15 30.33 1027 10 16.0934 0 0
10:55 am 10:55 Sunny 15 -9.6 6 -14.2 69 69 W 9 15 30.33 1027 10 16.0934 0 0
11:15 am 11:15 Sunny 17 -8.6 7 -13.9 66 66 WNW 8 13 30.33 1027 10 16.0934 0 0
11:35 am 11:35 Sunny 18 -8 8 -13.5 65 65 W 6 9 30.3 1026 10 16.0934 0 0
11:55 am 11:55 Sunny 18 -7.6 9 -12.8 67 67 W 6 9 30.3 1026 10 16.0934 0 0
12:15 pm 12:15 Sunny 19 -7.4 9 -12.8 66 66 W 5 7 30.3 1026 10 16.0934 0 0
12:35 pm 12:35 Sunny 19 -7 10 -12.4 66 66 W 3 6 30.3 1026 10 16.0934 0 0
12:55 pm 12:55 Sunny 21 -6.3 10 -12.1 64 64 Calm 30.27 1025 10 16.0934 0 0
1:15 pm 13:15 Sunny 23 -5.2 11 -11.9 60 60 Calm 30.24 1024 10 16.0934 0 0
1:35 pm 13:35 Sunny 23 -4.8 11 -11.5 60 60 W 5 7 30.24 1024 10 16.0934 0 0
1:55 pm 13:55 Sunny 24 -4.5 11 -11.5 58 58 W 6 9 30.24 1024 10 16.0934 0 0
2:15 pm 14:15 Sunny 25 -3.7 9 -12.7 50 50 SW 7 11 30.24 1024 10 16.0934 0 0
2:35 pm 14:35 Sunny 26 -3.3 11 -11.8 52 52 WSW 5 7 30.24 1024 10 16.0934 0 0
2:55 pm 14:55 Sunny 26 -3.1 13 -10.5 57 57 SW 8 13 30.24 1024 10 16.0934 0 0
3:15 pm 15:15 Sunny 27 -3 15 -9.5 61 61 SW 6 9 30.24 1024 10 16.0934 0 0
3:35 pm 15:35 Sunny 26 -3.3 12 -11 56 56 SW 7 11 30.24 1024 10 16.0934 0 0
3:55 pm 15:55 Sunny 26 -3.5 13 -10.4 59 59 SW 7 11 30.24 1024 10 16.0934 0 0
4:15 pm 16:15 Sunny 27 -2.8 15 -9.7 59 59 SSW 6 9 30.24 1024 10 16.0934 0 0
4:35 pm 16:35 Sunny 27 -3 15 -9.4 62 62 SSW 3 6 30.24 1024 10 16.0934 0 0
4:55 pm 16:55 Sunny 27 -2.9 15 -9.5 61 61 S 3 6 30.27 1025 10 16.0934 0 0
5:15 pm 17:15 Sunny 26 -3.2 14 -9.9 60 60 Calm 30.27 1025 10 16.0934 0 0
5:35 pm 17:35 Sunny 24 -4.4 13 -10.6 62 62 S 7 11 30.27 1025 10 16.0934 0 0
5:55 pm 17:55 Sunny 23 -4.9 13 -10.6 65 65 S 7 11 30.27 1025 10 16.0934 0 0
6:15 pm 18:15 Clear 23 -4.8 13 -10.6 64 64 S 8 13 30.27 1025 10 16.0934 0 0
6:35 pm 18:35 Clear 21 -6.3 11 -11.6 66 66 S 7 11 30.3 1026 10 16.0934 0 0
6:55 pm 18:55 Clear 19 -7.4 11 -11.9 71 71 S 7 11 30.3 1026 10 16.0934 0 0
7:15 pm 19:15 Clear 19 -7.3 11 -11.7 71 71 S 7 11 30.3 1026 10 16.0934 0 0
7:35 pm 19:35 Clear 18 -7.6 10 -12 71 71 S 8 13 30.3 1026 10 16.0934 0 0
7:55 pm 19:55 Clear 17 -8.3 10 -12.5 72 72 SSE 7 11 30.33 1027 10 16.0934 0 0
8:15 pm 20:15 Clear 17 -8.5 10 -12 76 76 S 8 13 30.36 1028 10 16.0934 0 0
8:35 pm 20:35 Clear 16 -8.8 10 -12.1 77 77 S 7 11 30.36 1028 10 16.0934 0 0
8:55 pm 20:55 Clear 17 -8.5 11 -11.8 77 77 S 8 13 30.36 1028 10 16.0934 0 0
9:15 pm 21:15 Clear 16 -9.1 10 -12.1 79 79 S 6 9 30.39 1029 10 16.0934 0 0
9:35 pm 21:35 Clear 15 -9.5 10 -12.2 81 81 S 7 11 30.39 1029 10 16.0934 0 0
9:55 pm 21:55 Clear 15 -9.6 10 -12.4 80 80 S 9 15 30.39 1029 10 16.0934 0 0
10:15 pm 22:15 Clear 15 -9.6 10 -12.5 80 80 SSE 9 15 30.42 1030 10 16.0934 0 0
10:35 pm 22:35 Clear 15 -9.6 10 -12.3 81 81 SSE 10 17 30.42 1030 10 16.0934 0 0
10:55 pm 22:55 Clear 16 -9.1 10 -12 80 80 SSE 9 15 30.42 1030 10 16.0934 0 0
11:15 pm 23:15 Clear 13 -10.5 9 -12.9 83 83 SSE 7 11 30.45 1031 10 16.0934 0 0
11:35 pm 23:35 Clear 12 -11.1 8 -13.5 83 83 SE 9 15 30.45 1031 10 16.0934 0 0
11:55 pm 23:55 Clear 10 -12.3 6 -14.4 85 85 SE 8 13 30.45 1031 10 16.0934 0 0

Powered by AerisWeather